|   |  | Asteroid 2017 MB5
					
					
					
					
						
					
					
						
							(Preview) 
						
							
								The 84 - 190 metre wide asteroid 2017 MB5 in the constellation Pisces will make a close pass (18.89 LD, 0.04854 AU) travelling at 9.54 km/second, to the Earth-Moon system on the 5th July 2017 @ 17:55 UT ±00:01.  Magnitude: 18.3V See more The Lunar Distance (LD), the distance between Earth and the Moon,... | Blobrana | 0 |  |  | 
		
			
			
				
				
					|   |  | Asteroid (9021) Fagus
					
					
					
					
						
					
					
						
							(Preview) 
						
							
								Asteroid 9021 Fagus (1988 CT5) was discovered on February 14, 1988 by Eric W. Elst at the European Southern Observatory. | Blobrana | 1 |  |  | 
		
			
			
				
				
					|   |  | Asteroid 2017 ME4
					
					
					
					
						
					
					
						
							(Preview) 
						
							
								The 15 - 33 metre wide asteroid 2017 ME4 in the constellation Cepheus will make a close pass (5.38 LD, 0.01381 AU), travelling at 6.75 km/second, to the Earth-Moon system on the 3rd July 2017 @ 14:41 UT ±00:01.  Magnitude: 20.1 V See more The Lunar Distance (LD), the distance between Earth and the Moon,... | Blobrana | 0 |  |  | 
		
			
			
				
				
					|   |  | Asteroid 2017 MC3
					
					
					
					
						
					
					
						
							(Preview) 
						
							
								Orbital elements:
2017 MC3                                                 Earth MOID = 0.0093 AU
Epoch 2017 Sept. 4.0 TT = JDT 2458000.5                 MPC
M   6.72237              (2000.0)            P               Q
n   0.51693453     Peri.  246.82745     +0.98996805     +0.11826129
a   1.5376082      Node   106.30995     -0.08094020     +0.92318847
e   0.4957137      Incl.    4.62055     -0.11580998     +0.36570113
P   1.91           H   24.2           G   0.... | Blobrana | 1 |  |  | 
		
			
			
				
				
					|   |  | Asteroid 2017 MC1
					
					
					
					
						
					
					
						
							(Preview) 
						
							
								Orbital elements:
2017 MC1                                                 Earth MOID = 0.0026 AU
Epoch 2017 Sept. 4.0 TT = JDT 2458000.5                 MPC
M   8.37949              (2000.0)            P               Q
n   0.21736026     Peri.   43.29509     +0.69397047     +0.71983793
a   2.7395713      Node   270.65665     -0.66473037     +0.63230959
e   0.6536292      Incl.    0.88465     -0.27665596     +0.28638773
P   4.53           H   24.4           G   0.1... | Blobrana | 1 |  |  | 
		
			
			
				
				
					|   |  | Asteroid 2017 MB3
					
					
					
					
						
					
					
						
							(Preview) 
						
							
								The 23 - 52 metre wide asteroid 2017 MB3 in the constellation Hercules will make a close pass (4.99 LD, 0.01283 AU), travelling at 6.45 km/second, to the Earth-Moon system on the 30th June 2017 @ 16:42 UT ±00:01.  Magnitude: 18.6 V See more The Lunar Distance (LD), the distance between Earth and the Moo... | Blobrana | 0 |  |  | 
		
			
			
				
				
					|   |  | Asteroid 2017 MA3
					
					
					
					
						
					
					
						
							(Preview) 
						
							
								The 12 - 27 metre wide asteroid 2017 MA3 in the constellation Cygnus will make a close pass (3.23 LD, 0.00829 AU) travelling at 9.28 km/second, to the Earth-Moon system on the 27th June 2017 @ 07:37 UT ±00:01.  Magnitude: 18.6 V See more The Lunar Distance (LD), the distance between Earth and the Moon, e... | Blobrana | 1 |  |  | 
		
			
			
				
				
					|   |  | Asteroid 2015 YC1
					
					
					
					
						
					
					
						
							(Preview) 
						
							
								Orbital elements:
2015 YC1                                                 Earth MOID = 0.0030 AU
Epoch 2017 Sept. 4.0 TT = JDT 2458000.5                 MPC
M 127.13489              (2000.0)            P               Q
n   0.87328997     Peri.  267.89023     -0.98791682     -0.10315249
a   1.0840028      Node   266.17477     +0.14053836     -0.91088175
e   0.2559720      Incl.    6.65726     -0.06534006     -0.39956727
P   1.13           H   26.0           G... | Blobrana | 0 |  |  | 
		
			
			
				
				
					|   |  | Asteroid 2017 MA1
					
					
					
					
						
					
					
						
							(Preview) 
						
							
								Orbital elements:
2017 MA1                                            PHA, Earth MOID = 0.0315 AU
Epoch 2017 Sept. 4.0 TT = JDT 2458000.5                 MPC
M  30.15014              (2000.0)            P               Q
n   0.24809916     Peri.   47.23406     -0.76497000     -0.58950069
a   2.5083368      Node    94.97070     +0.48823633     -0.79347494
e   0.8990261      Incl.   15.09503     +0.42005498     -0.15128272
P   3.97           H   21.... | Blobrana | 0 |  |  | 
		
			
			
				
				
					|   |  | Asteroid 2017 MB1
					
					
					
					
						
					
					
						
							(Preview) 
						
							
								Orbital elements:
2017 MB1                                            PHA, Earth MOID = 0.0115 AU
Epoch 2017 Sept. 4.0 TT = JDT 2458000.5                 MPC
M 359.33104              (2000.0)            P               Q
n   0.26624399     Peri.  264.43801     +0.84390166     -0.52333648
a   2.3930375      Node   127.06106     +0.53190453     +0.78740569
e   0.7547602      Incl.    8.51122     +0.07005395     +0.32574714
P   3.70           H   1... | Blobrana | 0 |  |  | 
		
			
			
				
				
					|   |  | Asteroid 2017 MV2
					
					
					
					
						
					
					
						
							(Preview) 
						
							
								Orbital elements:
2017 MV2                                            PHA, Earth MOID = 0.0461 AU
Epoch 2017 Sept. 4.0 TT = JDT 2458000.5                 MPC
M 357.90335              (2000.0)            P               Q
n   0.28075230     Peri.  167.40673     +0.94212263     +0.33488780
a   2.3098680      Node   172.96547     -0.31780518     +0.90721043
e   0.5460108      Incl.    7.49371     -0.10679329     +0.25459653
P   3.51           H   2... | Blobrana | 0 |  |  | 
		
			
			
				
				
					|   |  | Asteroid 2017 MD1
					
					
					
					
						
					
					
						
							(Preview) 
						
							
								Orbital elements:
2017 MD1                                                 Earth MOID = 0.0005 AU
Epoch 2017 Sept. 4.0 TT = JDT 2458000.5                 MPC
M  47.04143              (2000.0)            P               Q
n   0.36435461     Peri.   28.55066     -0.96428565     +0.26486435
a   1.9414216      Node   166.80822     -0.24322489     -0.88511316
e   0.5785532      Incl.    0.06540     -0.10485630     -0.38265072
P   2.71           H   24.6           G   0.... | Blobrana | 0 |  |  | 
		
			
			
				
				
					|   |  | Asteroid (6459) Hidesan
					
					
					
					
						
					
					
						
							(Preview) 
						
							
								Asteroid (6459) Hidesan (1992 UY5) is a main-belt asteroid orbiting the Sun with a period of 5.27 years at an average distance of 3.0234087 AU and an eccentricity of 0.0983536, inclined at 10.58889° with respect to the ecliptic. It was discovered by Kin Endate and Kazuro Watanabe in Kitami on the 28t... | Blobrana | 1 |  |  | 
		
			
			
				
				
					|   |  | Asteroid 31556 Shatner (1999 EP5)
					
					
					
					
						
					
					
						
							(Preview) 
						
							
								31556 Shatner Discovered 1999 Mar. 13 by R. A. Tucker at Goodricke-Pigott. William Shatner (b. 1931) is a Canadian actor. Best known for portraying Captain James Tiberius Kirk in "Star Trek", he has attained the status of cultural icon. His character has inspired people to become writers, researc... | Blobrana | 1 |  |  | 
		
			
			
				
				
					|   |  | Asteroid 2017 FR2
					
					
					
					
						
					
					
						
							(Preview) 
						
							
								The 65 - 140 metre wide asteroid 2017 FR2 will make a close pass (30.53 LD, 0.07846 AU) travelling at 6.16 km/second, to the Earth-Moon system on the 13th June 2017 @ 18:55 UT ±00:01.  Magnitude: 21.7 V See more The Lunar Distance (LD), the distance between Earth and the Moon, equals 384,401 km, (or 0.00... | Blobrana | 0 |  |  |